Regional Weather Roundup
Issued by NWS Newport/Morehead, NC

Current Version | Previous Version | Text Only | Print | Product List | Glossary On
Versions: 1 2 3 4 5 6 7 8 9 10 11 12 13 14 15 16 17 18 19 20 21 22 23 24 25 26 27 28 29 30 31 32 33 34 35 36 37 38 39 40 41 42 43 44 45 46 47 48 49 50
262 ASUS42 KMHX 130425 RWRMHX WEATHER ROUNDUP FOR EASTERN NORTH CAROLINA NATIONAL WEATHER SERVICE NEWPORT/MOREHEAD CITY NC 1100 PM EST FRI FEB 12 2016 NOTE: "FAIR" INDICATES FEW OR NO CLOUDS BELOW 12,000 FEET WITH NO SIGNIFICANT WEATHER AND/OR OBSTRUCTIONS TO VISIBILITY NCZ015>017-031-032-045>047-102-103-130500- NORTH COAST CITY SKY/WX TMP DP RH WIND PRES REMARKS EDENTON PTCLDY 31 28 92 W7 30.03S ELIZABETH CITY CLEAR 25 23 92 W7 30.01F KITTY HAWK CLOUDY 32 31 96 W5 29.99S MANTEO CLOUDY 32 32 99 NW8 30.00F $$ NCZ045>047-081-094-103-104-130500- CENTRAL COAST CITY SKY/WX TMP DP RH WIND PRES REMARKS FRISCO CLOUDY 35 33 92 NW8 30.00F SWANQUARTER N/A N/A N/A N/A NW3 30.00S $$ NCZ095-097-098-100-101-130500- SOUTHERN COAST CITY SKY/WX TMP DP RH WIND PRES REMARKS BEAUFORT CLOUDY 33 32 96 W10 30.04S FOG CEDAR ISLAND N/A 34 N/A N/A W6G14 30.06S JACKSONVILLE CLOUDY 32 31 96 NW7 30.05F FOG PINEY ISLAND CLOUDY N/A N/A N/A W13 30.03S WILMINGTON CLEAR 31 29 92 NW6 30.05F $$ NCZ011>013-027>030-043-044-078>080-089-090>093-098-130500- COASTAL PLAIN CITY SKY/WX TMP DP RH WIND PRES REMARKS AHOSKIE NOT AVBL CLINTON CLOUDY 32 32 100 CALM 30.06F FOG ELIZABETHTOWN MOCLDY 32 31 97 CALM 30.04F FOG GOLDSBORO MOCLDY 28 28 100 SW5 30.03F GREENVILLE CLOUDY 30 28 93 CALM 30.06S HAVELOCK CLOUDY 32 30 92 NW10 30.05S KENANSVILLE CLOUDY 31 31 100 CALM 30.05F FOG KINSTON PTCLDY 30 28 95 SW3 30.05F NEW BERN CLOUDY 32 30 92 W7 30.05F FOG RICHLANDS CLOUDY 32 27 80 CALM 30.05F ROCKY MOUNT CLOUDY 30 25 81 SW3 30.04F WASHINGTON PTCLDY 28 26 91 CALM 30.03F WHITEVILLE PTCLDY 32 29 90 CALM 30.04F $$ AMZ130-135-150-152-154-156-158-170-250-252-270-ANZ085-086-088-633-658-670-130500- MARINE OBSERVATIONS STATION/POSITION TIME TEMP WIND PRES WAVE SWELL AIR SEA DIR/SP/G HT/PER HT/PER (UTC) (F) (DEG/KT/KT) (MB) (FT/S) (FT/S) CHESAPEAKE LIGHT 0400 29 300/ 17/ 18 1016.7 64 E VA BEACH 0350 37 48 310/ 14/ 17 1014.5 2/ 8 2/ 8 DUCK 0400 29 290/ 14/ 16 1015.3 2 E DUCK 0411 42 N/A 2/ 5 OREGON INLET 0400 32 41 300/ 11/ 13 1015.6 13E OREGON INLT 0400 45 N/A 3/ 5 HATTERAS CG 0400 35 45 300/ 12/ 14 1015.4 DIAMOND BUOY 0350 42 71 320/ 17/ 23 1015.4 4/ 8 3/ 8 CAPE LOOKOUT NOT AVBL BEAUFORT LAB 0400 34 43 320/ 5/ 7 1016.1 30 SE NEW RVR IN 0408 38 63 1016.4 30 SE NEW RVR IN 0325 63 N/A 4/ 7 27 SE WRIGHTSVLE 0408 37 60 360/ 14/ 21 1015.7 5 SE WRIGHTSVLE 0308 38 51 310/ 14/ 17 1018.0 225 S CAPE HAT 0350 62 68 260/ 27/ 35 N/A 15/10 8/10 41 SE CHARLESTON 0350 53 68 350/ 8/ 10 1017.0 4/ 7 3/ 7 $$

USA.gov is the U.S. government's official web portal to all federal, state and local government web resources and services.